When you browse on this site, cookies collect data to enhance your experience and personalize the content and advertising you see.
Visit our Privacy Policy to learn more. By continuing to use the site, you agree to this use of cookies and data.
  • In Deutschland
  • Länderverzeichnis
  • Für 7 Tage
  • Wassertemperatur
  • Wetterkarte
  • Widgets
  • user-avatar
    Anmelden

    Stündliche Wetter Idshewan

    Heute, 23 September, Montag

    Zeit Temperatur Niederschläge Wind Luftdruck Luftfeuchtigkeit
    00:00 +10°C° 0 mm 1 m/S 695 mmHg 69%
    01:00 +10°C° 0 mm 1 m/S 695 mmHg 70%
    02:00 +9°C° 0 mm 1 m/S 694 mmHg 71%
    03:00 +9°C° 0 mm 1 m/S 694 mmHg 72%
    04:00 +9°C° 0 mm 1 m/S 694 mmHg 72%
    05:00 +9°C° 0 mm 1 m/S 694 mmHg 72%
    06:00 +9°C° 0 mm 1 m/S 694 mmHg 72%
    07:00 +11°C° 0 mm 1 m/S 694 mmHg 64%
    08:00 +14°C° 0 mm 1 m/S 694 mmHg 57%
    09:00 +18°C° 0 mm 1 m/S 695 mmHg 47%
    10:00 +18°C° 0 mm 2 m/S 695 mmHg 45%
    11:00 +19°C° 0 mm 2 m/S 694 mmHg 43%
    12:00 +20°C° 0 mm 2 m/S 694 mmHg 40%
    13:00 +20°C° 0 mm 2 m/S 693 mmHg 41%
    14:00 +20°C° 0 mm 2 m/S 693 mmHg 42%
    15:00 +20°C° 0 mm 2 m/S 692 mmHg 43%
    16:00 +19°C° 0 mm 2 m/S 692 mmHg 49%
    17:00 +18°C° 0 mm 1 m/S 692 mmHg 55%
    18:00 +15°C° 0 mm 1 m/S 692 mmHg 61%
    19:00 +14°C° 0 mm 1 m/S 692 mmHg 62%
    20:00 +14°C° 0 mm 1 m/S 692 mmHg 64%
    21:00 +13°C° 0 mm 1 m/S 693 mmHg 66%
    22:00 +13°C° 0 mm 1 m/S 693 mmHg 66%
    23:00 +13°C° 0 mm 1 m/S 693 mmHg 67%

    Morgen, 24 September, Dienstag

    Zeit Temperatur Niederschläge Wind Luftdruck Luftfeuchtigkeit
    00:00 +12°C° 0 mm 1 m/S 693 mmHg 68%
    01:00 +12°C° 0 mm 1 m/S 693 mmHg 68%
    02:00 +10°C° 0 mm 0 m/S 693 mmHg 68%
    03:00 +10°C° 0 mm 0 m/S 693 mmHg 69%
    04:00 +11°C° 0 mm 1 m/S 693 mmHg 69%
    05:00 +11°C° 0 mm 1 m/S 693 mmHg 70%
    06:00 +10°C° 0 mm 1 m/S 693 mmHg 70%
    07:00 +13°C° 0 mm 1 m/S 693 mmHg 64%
    08:00 +15°C° 0 mm 1 m/S 694 mmHg 58%
    09:00 +18°C° 0 mm 1 m/S 694 mmHg 52%
    10:00 +18°C° 0 mm 2 m/S 694 mmHg 51%
    11:00 +20°C° 0 mm 2 m/S 693 mmHg 49%
    12:00 +21°C° 0 mm 3 m/S 693 mmHg 48%
    13:00 +21°C° 0 mm 3 m/S 693 mmHg 50%
    14:00 +21°C° 0 mm 2 m/S 693 mmHg 51%
    15:00 +21°C° 0 mm 2 m/S 692 mmHg 52%
    16:00 +20°C° 0 mm 2 m/S 692 mmHg 62%
    17:00 +19°C° 0 mm 1 m/S 691 mmHg 71%
    18:00 +16°C° 0 mm 1 m/S 691 mmHg 81%
    19:00 +15°C° 0 mm 1 m/S 691 mmHg 82%
    20:00 +15°C° 0 mm 1 m/S 692 mmHg 83%
    21:00 +14°C° 0 mm 1 m/S 692 mmHg 84%
    22:00 +14°C° 0 mm 1 m/S 692 mmHg 84%
    23:00 +14°C° 0 mm 1 m/S 692 mmHg 83%

    übermorgen, 25 September, Mittwoch

    Zeit Temperatur Niederschläge Wind Luftdruck Luftfeuchtigkeit
    00:00 +14°C° 0 mm 1 m/S 691 mmHg 83%
    01:00 +14°C° 0 mm 1 m/S 691 mmHg 82%
    02:00 +13°C° 0 mm 1 m/S 691 mmHg 82%
    03:00 +13°C° 0 mm 1 m/S 691 mmHg 82%
    04:00 +13°C° 0 mm 1 m/S 691 mmHg 80%
    05:00 +13°C° 0 mm 1 m/S 691 mmHg 79%
    06:00 +13°C° 0 mm 1 m/S 691 mmHg 78%
    07:00 +16°C° 0 mm 1 m/S 692 mmHg 67%
    08:00 +20°C° 0 mm 1 m/S 692 mmHg 56%
    09:00 +22°C° 0 mm 1 m/S 693 mmHg 45%
    10:00 +24°C° 0 mm 1 m/S 693 mmHg 43%
    11:00 +25°C° 0 mm 2 m/S 693 mmHg 41%
    12:00 +26°C° 0 mm 2 m/S 693 mmHg 38%
    13:00 +26°C° 0 mm 2 m/S 692 mmHg 39%
    14:00 +26°C° 0 mm 2 m/S 692 mmHg 39%
    15:00 +27°C° 0 mm 2 m/S 692 mmHg 40%
    16:00 +24°C° 0 mm 1 m/S 692 mmHg 50%
    17:00 +22°C° 0 mm 1 m/S 691 mmHg 59%
    18:00 +20°C° 0 mm 1 m/S 691 mmHg 69%
    19:00 +19°C° 0 mm 1 m/S 692 mmHg 70%
    20:00 +19°C° 0 mm 1 m/S 692 mmHg 71%
    21:00 +18°C° 0 mm 1 m/S 692 mmHg 72%
    22:00 +18°C° 0 mm 1 m/S 692 mmHg 75%
    23:00 +15°C° 0 mm 0 m/S 692 mmHg 78%

    26 September, Donnerstag

    Zeit Temperatur Niederschläge Wind Luftdruck Luftfeuchtigkeit
    00:00 +15°C° 0 mm 0 m/S 692 mmHg 82%
    01:00 +14°C° 0 mm 0 m/S 692 mmHg 84%
    02:00 +14°C° 0 mm 0 m/S 692 mmHg 87%
    03:00 +13°C° 0 mm 0 m/S 693 mmHg 89%
    04:00 +13°C° 0 mm 0 m/S 693 mmHg 88%
    05:00 +13°C° 0 mm 0 m/S 693 mmHg 88%
    06:00 +14°C° 0 mm 0 m/S 693 mmHg 87%
    07:00 +15°C° 0 mm 0 m/S 693 mmHg 81%
    08:00 +19°C° 0 mm 1 m/S 693 mmHg 74%
    09:00 +21°C° 0 mm 1 m/S 693 mmHg 68%
    10:00 +21°C° 0 mm 2 m/S 693 mmHg 64%
    11:00 +23°C° 0 mm 2 m/S 693 mmHg 60%
    12:00 +24°C° 0 mm 2 m/S 693 mmHg 56%
    13:00 +25°C° 0 mm 2 m/S 692 mmHg 54%
    14:00 +25°C° 0 mm 2 m/S 692 mmHg 52%
    15:00 +26°C° 0 mm 2 m/S 692 mmHg 49%
    16:00 +23°C° 0 mm 2 m/S 691 mmHg 61%
    17:00 +21°C° 0 mm 1 m/S 691 mmHg 72%
    18:00 +19°C° 0 mm 1 m/S 690 mmHg 84%
    19:00 +19°C° 0 mm 1 m/S 691 mmHg 83%
    20:00 +17°C° 0 mm 2 m/S 691 mmHg 82%
    21:00 +17°C° 0 mm 2 m/S 691 mmHg 81%
    22:00 +17°C° 0 mm 2 m/S 692 mmHg 78%
    23:00 +18°C° 0 mm 1 m/S 692 mmHg 75%

    27 September, Freitag

    Zeit Temperatur Niederschläge Wind Luftdruck Luftfeuchtigkeit
    00:00 +18°C° 0 mm 1 m/S 692 mmHg 72%
    01:00 +16°C° 0 mm 1 m/S 692 mmHg 72%
    02:00 +16°C° 0 mm 1 m/S 692 mmHg 73%
    03:00 +16°C° 0 mm 1 m/S 692 mmHg 74%
    04:00 +15°C° 0 mm 1 m/S 692 mmHg 75%
    05:00 +15°C° 0 mm 1 m/S 692 mmHg 76%
    06:00 +15°C° 0 mm 1 m/S 692 mmHg 77%
    07:00 +18°C° 0 mm 1 m/S 692 mmHg 70%
    08:00 +20°C° 0 mm 1 m/S 692 mmHg 63%
    09:00 +23°C° 0 mm 1 m/S 693 mmHg 57%
    10:00 +24°C° 0 mm 2 m/S 693 mmHg 55%
    11:00 +24°C° 0 mm 2 m/S 693 mmHg 54%
    12:00 +25°C° 0 mm 3 m/S 692 mmHg 52%
    13:00 +26°C° 0 mm 2 m/S 692 mmHg 51%
    14:00 +26°C° 0 mm 2 m/S 692 mmHg 51%
    15:00 +27°C° 0 mm 2 m/S 691 mmHg 50%
    16:00 +25°C° 0 mm 2 m/S 691 mmHg 59%
    17:00 +23°C° 0 mm 1 m/S 690 mmHg 67%
    18:00 +18°C° 0 mm 0 m/S 690 mmHg 76%
    19:00 +20°C° 0 mm 1 m/S 690 mmHg 76%
    20:00 +20°C° 0 mm 1 m/S 691 mmHg 76%
    21:00 +19°C° 0 mm 2 m/S 691 mmHg 76%
    22:00 +19°C° 0 mm 1 m/S 691 mmHg 75%
    23:00 +19°C° 0 mm 1 m/S 691 mmHg 73%

    28 September, Samstag

    Zeit Temperatur Niederschläge Wind Luftdruck Luftfeuchtigkeit
    00:00 +19°C° 0 mm 1 m/S 691 mmHg 72%
    01:00 +18°C° 0 mm 1 m/S 691 mmHg 70%
    02:00 +18°C° 0 mm 1 m/S 691 mmHg 69%
    03:00 +18°C° 0 mm 1 m/S 690 mmHg 68%
    04:00 +16°C° 0 mm 1 m/S 690 mmHg 69%
    05:00 +16°C° 0 mm 1 m/S 690 mmHg 71%
    06:00 +15°C° 0 mm 1 m/S 690 mmHg 72%
    07:00 +18°C° 0 mm 2 m/S 690 mmHg 67%
    08:00 +20°C° 0 mm 2 m/S 691 mmHg 61%
    09:00 +23°C° 0 mm 2 m/S 691 mmHg 56%
    10:00 +21°C° 0.1 mm 2 m/S 691 mmHg 63%
    11:00 +20°C° 0.1 mm 2 m/S 691 mmHg 71%
    12:00 +19°C° 0.1 mm 2 m/S 691 mmHg 78%
    13:00 +21°C° 0.3 mm 1 m/S 691 mmHg 76%
    14:00 +21°C° 0.3 mm 1 m/S 691 mmHg 73%
    15:00 +22°C° 0.3 mm 1 m/S 690 mmHg 70%
    16:00 +21°C° 0.2 mm 1 m/S 691 mmHg 74%
    17:00 +19°C° 0.2 mm 1 m/S 691 mmHg 78%
    18:00 +16°C° 0.2 mm 0 m/S 691 mmHg 82%
    19:00 +18°C° 0 mm 1 m/S 691 mmHg 81%
    20:00 +16°C° 0 mm 1 m/S 692 mmHg 81%
    21:00 +16°C° 0 mm 1 m/S 692 mmHg 81%
    22:00 +16°C° 0 mm 1 m/S 692 mmHg 80%
    23:00 +15°C° 0 mm 1 m/S 692 mmHg 80%
    Mehr zeigen